Location: Chilton Park
(37.7711°N, 100.0276°W)
Time: 16:22:16
(UTC+00:00)

Cosmos 1428 Rocket - Pass Details

Date: 05 July 2022
Orbit: 947 x 989 km, 82.9° (Epoch: 17 August)

Event Time Altitude Azimuth Distance (km) Brightness Sun altitude
Rises 10:46:49 0° 128° (SE) 3,688 7.7 -7.0°
Reaches altitude 10° 10:51:21 10° 98° (E) 2,747 7.6 -6.3°
Maximum altitude 10:53:21 12° 79° (E) 2,630 8.0 -5.9°
Drops below altitude 10° 10:55:20 10° 61° (ENE) 2,750 8.7 -5.6°
Sets 10:59:51 0° 31° (NNE) 3,700 8.9 -4.9°
